Miscellaneous Local Product
Issued by NWS Hastings, NE

Home | Current Version | Previous Version | Text Only | Print | Product List | Glossary Off
Versions: 1 2 3 4 5 6 7 8 9 10 11 12 13 14 15 16 17 18 19 20 21 22 23 24 25 26 27 28 29 30 31 32 33 34 35 36 37 38 39 40 41 42 43 44 45 46 47 48 49 50

000
AXUS43 KGID 240102
MISGRI

GID CWA HOURLY WEATHER ROUNDUP
NATIONAL WEATHER SERVICE HASTINGS NE
700 PM CST TUE DEC 23 2014

NOTE: "FAIR" INDICATES FEW OR NO CLOUDS BELOW 12,000 FEET WITH NO
SIGNIFICANT WEATHER AND/OR OBSTRUCTIONS TO VISIBILITY.

...SOUTH CENTRAL NEBRASKA...

CITY           SKY/WX    TMP DP  RH WIND       PRES   REMARKS
GRAND ISLAND   CLOUDY    31  26  82 N28G36    29.97R WCI  17
HASTINGS       CLOUDY    32  26  78 N26G41    29.96R WCI  18
KEARNEY        CLOUDY    30  25  80 NW23G31   29.99R WCI  17
ORD            CLOUDY    30  24  78 NW28G35   30.01R WCI  15
YORK           MIX PCPN  34  32  93 N20G29    29.92R WCI  22
AURORA         CLOUDY    33  30  88 N28G33    29.95R WCI  19
LEXINGTON      CLOUDY    31  26  79 NW20G31   30.04R WCI  19
HOLDREGE       FLURRIES  31  26  81 N24G32    29.99R WCI  18
HEBRON         LGT RAIN  35  31  87 N13G26    29.92R WCI  26

...NEBRASKA PANHANDLE...

CITY           SKY/WX    TMP DP  RH WIND       PRES   REMARKS
CHADRON        FAIR      24  17  74 NW3       30.16S
ALLIANCE       CLOUDY    28  22  78 N15       30.12R WCI  16
SCOTTSBLUFF    FAIR      23  16  74 NW7       30.15R WCI  15
SIDNEY         FAIR      26  18  71 N21       30.10R WCI  12

...WESTERN AND NORTH CENTRAL NEBRASKA...

CITY           SKY/WX    TMP DP  RH WIND       PRES   REMARKS
VALENTINE      CLOUDY    28  22  78 NW17      30.09R WCI  16
AINSWORTH      CLOUDY    26  22  83 NW23G30   30.07R WCI  12
ONEILL         CLOUDY    30  28  93 NW26G33   30.02R WCI  16
BROKEN BOW     MIX PCPN  29  23  78 N26G37    30.02R WCI  14
IMPERIAL       FAIR      27  20  75 N15       30.10R WCI  15
NORTH PLATTE   CLOUDY    31  21  66 N24G32    30.08R WCI  17
MCCOOK         CLOUDY    31  23  72 N26G32    30.05R WCI  17

...EASTERN NEBRASKA...

CITY           SKY/WX    TMP DP  RH WIND       PRES   REMARKS
NORFOLK        LGT SNOW  33  30  88 N28G36    29.94R FOG     WCI  20
SO SIOUX CITY  CLOUDY    38  34  85 NW18      29.89R WCI  28
TEKAMAH        LGT RAIN  37  35  92 NW15      29.88R WCI  28
COLUMBUS       CLOUDY    34  27  75 N21G32    29.94R WCI  22
ALBION         CLOUDY    32  27  82 NW24G32   29.96R WCI  19
OMAHA EPPLEY   LGT SNOW  35  33  92 N12       29.87R FOG     WCI  27
OFFUTT AFB     LGT SNOW  36  32  87 NW7       29.87R WCI  30
MILLARD        LGT RAIN  35  33  93 NW7       29.87R WCI  29
LINCOLN        LGT RAIN  35  32  88 N18G25    29.90R WCI  24
NEBRASKA CITY  DRIZZLE   34  34 100 N13G18    29.86R WCI  25
BEATRICE       LGT RAIN  35  33  94 N18G24    29.89R WCI  24
FALLS CITY     LGT RAIN  34  32  92 NW9       29.85R WCI  27

...NORTHERN KANSAS...

CITY           SKY/WX    TMP DP  RH WIND       PRES   REMARKS
GOODLAND       CLOUDY    28  24  85 N18       30.09R WCI  15
HILL CITY      MIX PCPN  32  26  78 N23G33    30.02R WCI  19
NORTON         CLOUDY    34  25  69 NW21G33   30.01R WCI  22
PHILLIPSBURG   CLOUDY    36  28  75 NW28G33   30.00R WCI  23
SMITH CENTER   MOCLDY    32  27  80 NW23G33   29.99R WCI  19
BELOIT         CLOUDY    36  30  80 NW20G32   29.96R WCI  25
HAYS           CLOUDY    32  21  64 N22G33    29.99R WCI  19
RUSSELL        LGT SNOW  32  30  92 NW22G28   29.97R FOG     WCI  19
CONCORDIA      LGT RAIN  35  33  92 N18G30    29.93R WCI  24
SALINA         MIX PCPN  37  34  89 N18       29.92R WCI  27
TOPEKA         CLOUDY    39  33  79 N12G23    29.84R WCI  32



USA.gov is the U.S. government's official web portal to all federal, state and local government web resources and services.